IK7IZV Weather Reports


Display with metric or nautical units.
time (UTC)temp
F
wind
direction
speed
MPH
gust
MPH
rain 1hr
in
rain 24hr
in
rain mn
in
humidity
%
barometer
mb
20260905024557 73 276 2.0 5.0 0.00 0.00 0.00 55 1018.7
20260905023125 73 262 1.0 5.0 0.00 0.00 0.00 56 1018.8
20260905021555 73 212 2.0 7.0 0.00 0.00 0.00 56 1018.9
20260905020054 73 287 2.0 7.0 0.00 0.00 0.00 57 1018.9
20260905014555 73 257 3.0 9.0 0.00 0.00 0.00 57 1018.9
20260905013051 73 252 3.0 8.0 0.00 0.00 0.00 57 1019.0
20260905011556 73 278 1.0 6.0 0.00 0.00 0.00 57 1018.9
20260905010049 73 316 1.0 5.0 0.00 0.00 0.00 58 1018.9
20260905004548 73 280 2.0 5.0 0.00 0.00 0.00 59 1019.0
20260905003046 73 260 2.0 6.0 0.00 0.00 0.00 60 1019.0
20260905001545 73 244 3.0 7.0 0.00 0.00 0.00 60 1019.1
20260905000055 74 264 1.0 4.0 0.00 0.00 0.00 61 1018.9
20260904234541 74 262 3.0 6.0 0.00 0.00 0.00 62 1019.1
20260904233037 75 269 3.0 5.0 0.00 0.00 0.00 62 1019.1
20260904231536 75 283 1.0 4.0 0.00 0.00 0.00 63 1019.2
20260904230035 75 269 2.0 5.0 0.00 0.00 0.00 63 1019.3
20260904224533 75 272 1.0 4.0 0.00 0.00 0.00 64 1019.4
20260904223031 75 283 0.0 4.0 0.00 0.00 0.00 65 1019.4
20260904221529 76 300 1.0 4.0 0.00 0.00 0.00 65 1019.5
20260904220043 76 286 0.0 4.0 0.00 0.00 0.00 66 1019.5
20260904214523 77 343 0.0 4.0 0.00 0.00 0.00 66 1019.6
20260904213022 77 281 1.0 3.0 0.00 0.00 0.00 67 1019.5
20260904211522 78 248 0.0 3.0 0.00 0.00 0.00 67 1019.6
20260904210032 78 291 1.0 4.0 0.00 0.00 0.00 67 1019.6
20260904204521 78 273 0.0 1.0 0.00 0.00 0.00 67 1019.7
20260904203032 80 250 1.0 4.0 0.00 0.00 0.00 67 1019.6
20260904201519 81 269 1.0 4.0 0.00 0.00 0.00 69 1019.6
20260904200021 82 70 2.0 3.0 0.00 0.00 0.00 70 1019.6
20260904194541 81 59 2.0 2.0 0.00 0.00 0.00 70 1019.7
20260904193018 82 57 0.0 5.0 0.00 0.00 0.00 70 1019.6
20260904191523 82 73 2.0 7.0 0.00 0.00 0.00 70 1019.6
20260904190016 82 15 4.0 7.0 0.00 0.00 0.00 66 1019.6
20260904184518 82 55 1.0 5.0 0.00 0.00 0.00 63 1019.5
20260904183015 82 21 4.0 8.0 0.00 0.00 0.00 65 1019.3
20260904181515 83 21 4.0 11.0 0.00 0.00 0.00 65 1019.2
20260904180015 83 19 2.0 7.0 0.00 0.00 0.00 64 1019.0
20260904174529 83 14 1.0 4.0 0.00 0.00 0.00 64 1018.9
20260904173013 83 28 3.0 6.0 0.00 0.00 0.00 64 1018.7
20260904171517 83 98 1.0 6.0 0.00 0.00 0.00 66 1018.6
20260904170012 83 58 6.0 8.0 0.00 0.00 0.00 67 1018.6
20260904164511 83 77 5.0 9.0 0.00 0.00 0.00 68 1018.6
20260904163011 83 42 6.0 12.0 0.00 0.00 0.00 68 1018.6
20260904161510 83 73 7.0 13.0 0.00 0.00 0.00 70 1018.6
20260904160010 83 75 8.0 12.0 0.00 0.00 0.00 68 1018.7
20260904154509 84 47 8.0 11.0 0.00 0.00 0.00 64 1018.6
20260904153008 84 54 7.0 11.0 0.00 0.00 0.00 63 1018.8
20260904151508 84 69 8.0 12.0 0.00 0.00 0.00 63 1018.8
20260904150011 84 68 8.0 12.0 0.00 0.00 0.00 66 1018.7
20260904144507 84 63 9.0 12.0 0.00 0.00 0.00 68 1018.6
20260904143006 84 69 7.0 12.0 0.00 0.00 0.00 67 1018.6
20260904141505 84 73 7.0 11.0 0.00 0.00 0.00 66 1018.7
20260904140005 84 44 9.0 11.0 0.00 0.00 0.00 64 1018.7
20260904134504 84 69 6.0 11.0 0.00 0.00 0.00 66 1018.8
20260904133005 84 42 5.0 11.0 0.00 0.00 0.00 64 1019.0
20260904131502 84 345 6.0 12.0 0.00 0.00 0.00 69 1019.1
20260904130001 84 73 8.0 12.0 0.00 0.00 0.00 69 1019.1
20260904124502 84 44 7.0 13.0 0.00 0.00 0.00 70 1019.1
20260904123115 84 46 9.0 14.0 0.00 0.00 0.00 71 1019.2
20260904121604 84 340 8.0 12.0 0.00 0.00 0.00 72 1019.4
20260904120105 84 66 9.0 13.0 0.00 0.00 0.00 72 1019.5
20260904114559 84 87 8.0 14.0 0.00 0.00 0.00 72 1019.7
20260904113101 84 73 8.0 13.0 0.00 0.00 0.00 73 1019.7
20260904111556 83 88 8.0 17.0 0.00 0.00 0.00 74 1019.7
20260904110059 83 70 10.0 14.0 0.00 0.00 0.00 75 1019.7
20260904104601 84 74 9.0 15.0 0.00 0.00 0.00 74 1019.6
20260904103056 84 2 10.0 13.0 0.00 0.00 0.00 73 1019.7
20260904101606 84 56 10.0 16.0 0.00 0.00 0.00 73 1019.8
20260904100059 84 42 9.0 21.0 0.00 0.00 0.00 74 1019.7
20260904094554 84 8 6.0 18.0 0.00 0.00 0.00 74 1019.7
20260904093111 84 311 10.0 19.0 0.00 0.00 0.00 74 1019.6
20260904091550 83 11 10.0 22.0 0.00 0.00 0.00 73 1019.7
20260904090052 83 23 10.0 24.0 0.00 0.00 0.00 73 1019.7
20260904084548 83 14 9.0 23.0 0.00 0.00 0.00 73 1019.8
20260904083045 82 72 9.0 23.0 0.00 0.00 0.00 73 1019.7
20260904081542 82 35 11.0 20.0 0.00 0.00 0.00 72 1019.5
20260904080042 82 42 11.0 18.0 0.00 0.00 0.00 72 1019.1
20260904074540 82 312 9.0 21.0 0.00 0.00 0.00 72 1019.1
20260904073034 81 359 14.0 21.0 0.00 0.00 0.00 72 1018.7
20260904071533 82 354 8.0 22.0 0.00 0.00 0.00 71 1018.6
20260904070043 82 42 8.0 19.0 0.00 0.00 0.00 71 1018.4
20260904064536 81 35 12.0 19.0 0.00 0.00 0.00 69 1018.3
20260904063026 81 308 10.0 15.0 0.00 0.00 0.00 67 1018.1
20260904061523 81 23 7.0 14.0 0.00 0.00 0.00 67 1018.2
20260904060022 80 338 6.0 12.0 0.00 0.00 0.00 67 1018.2
20260904054530 80 357 2.0 6.0 0.00 0.00 0.00 67 1018.2
20260904053018 79 319 2.0 5.0 0.00 0.00 0.00 67 1018.1
20260904051516 78 299 1.0 8.0 0.00 0.00 0.00 68 1017.9
20260904050019 77 306 2.0 5.0 0.00 0.00 0.00 68 1017.8
20260904044524 77 346 5.0 10.0 0.00 0.00 0.00 68 1017.7
20260904043015 77 343 3.0 9.0 0.00 0.00 0.00 69 1017.6
20260904041510 77 338 4.0 8.0 0.00 0.00 0.00 69 1017.5
20260904040010 77 286 5.0 9.0 0.00 0.00 0.00 70 1017.4
20260904034514 77 321 5.0 9.0 0.00 0.00 0.00 70 1017.4
20260904033007 77 210 4.0 11.0 0.00 0.00 0.00 71 1017.5
20260904031512 77 343 4.0 10.0 0.00 0.00 0.00 71 1017.6
20260904030006 77 351 5.0 10.0 0.00 0.00 0.00 71 1017.7